Home   Weather   Texarkana   Past weeks
Flag for USA

Past Weather in Texarkana, Arkansas, USA — Yesterday and Last 2 Weeks

Now
55 °F

Clear.


Feels Like: 54 °F
Forecast: 72 / 52 °F
Wind: 6 mph from Southeast

Location: Texarkana Regional-Webb Field

Current Time: Apr 2, 2020 at 5:26:21 am

Latest Report: Apr 2, 2020 at 4:53 am


Visibility: 10 mi

Pressure: 29.97 "Hg

Humidity: 83%

Dew Point: 50 °F

Location of TexarkanaLocation

Past Weather in Texarkana — Graph

°F

Texarkana Temperature Yesterday

Maximum temperature yesterday: 71 °F (at 2:53 pm)
Minimum temperature yesterday: 45 °F (at 6:53 am)
Average temperature yesterday: 60 °F

High & Low Weather Summary for the Past Weeks

 TemperatureHumidityPressure
High88 °F (Mar 26, 3:53 pm)100% (Mar 18, 7:33 am)30.45 "Hg (Mar 18, 7:33 am)
Low45 °F (Apr 1, 6:53 am)28% (Mar 29, 4:53 pm)29.69 "Hg (Mar 27, 4:53 pm)
Average62 °F83%30.00 "Hg
* Reported Mar 18 3:53 am — Apr 2 3:53 am, Texarkana. Weather by CustomWeather, © 2020

Note: Actual official high and low records may vary slightly from our data, if they occured in-between our weather recording intervals... More about our weather records

Texarkana Weather History for the Previous 24 Hours

Scroll right to see more
 ConditionsComfort  
Time TempWeatherWind HumidityBarometerVisibility
3:53 am
Thu, Apr 2
58 °FClear.8 mph75%29.98 "Hg10 mi
2:53 am59 °FClear.6 mph72%29.97 "Hg10 mi
1:53 am59 °FClear.5 mph72%29.97 "Hg10 mi
12:53 am61 °FClear.5 mph65%29.97 "Hg10 mi
11:53 pm
Wed, Apr 1
61 °FClear.7 mph65%29.97 "Hg10 mi
10:53 pm61 °FClear.6 mph65%29.97 "Hg10 mi
9:53 pm61 °FClear.6 mph65%29.96 "Hg10 mi
8:53 pm62 °FClear.5 mph62%29.95 "Hg10 mi
7:53 pm62 °FClear.5 mph67%29.95 "Hg10 mi
6:53 pm66 °FSunny.5 mph54%29.96 "Hg10 mi
6:32 pm67 °FPassing clouds.5 mph51%29.97 "Hg10 mi
5:53 pm69 °FSunny.6 mph47%29.95 "Hg10 mi
4:53 pm70 °FSunny.7 mph44%29.95 "Hg10 mi
3:53 pm71 °FSunny.5 mph41%29.96 "Hg10 mi
2:53 pm71 °FSunny.7 mph41%29.98 "Hg10 mi
1:53 pm70 °FSunny.8 mph39%30.01 "Hg10 mi
12:53 pm70 °FSunny.10 mph42%30.02 "Hg10 mi
11:53 am67 °FSunny.3 mph47%30.04 "Hg10 mi
10:53 am65 °FSunny.7 mph52%30.05 "Hg10 mi
9:53 am62 °FSunny.3 mph65%30.04 "Hg10 mi
8:53 am54 °FSunny.No wind90%30.03 "Hg10 mi
7:53 am48 °FSunny.No wind96%30.01 "Hg10 mi
6:53 am45 °FClear.No wind100%29.99 "Hg7 mi
5:53 am49 °FClear.No wind97%29.99 "Hg10 mi
Weather by CustomWeather, © 2020

See weather overview

Advertising